MST,Max TemperatureF,Mean TemperatureF,Min TemperatureF,Max Dew PointF,MeanDew PointF,Min DewpointF,Max Humidity, Mean Humidity, Min Humidity, Max Sea Level PressureIn, Mean Sea Level PressureIn, Min Sea Level PressureIn, Max VisibilityMiles, Mean VisibilityMiles, Min VisibilityMiles, Max Wind SpeedMPH, Mean Wind SpeedMPH, Max Gust SpeedMPH,PrecipitationIn, CloudCover, Events, WindDirDegrees
2013-12-1,68,60,51,48,45,43,88,61,40,30.24,30.19,30.15,10,10,10,8,3,,0.00,1,,289
2013-12-2,69,55,41,46,39,28,100,58,21,30.14,30.06,29.99,10,9,5,7,4,,0.00,0,Fog,270
2013-12-3,73,58,44,39,35,25,76,39,17,29.92,29.82,29.76,10,10,10,14,7,20,0.00,0,,164
2013-12-4,66,58,51,46,39,34,67,47,30,29.92,29.86,29.79,10,10,10,22,15,30,0.00,3,,243
2013-12-5,48,46,44,45,36,30,100,68,50,30.03,29.98,29.95,10,10,5,10,5,,0.00,6,Rain,311
2013-12-6,50,41,32,32,28,23,93,59,35,30.20,30.14,30.09,10,10,10,8,3,,0.00,0,,310
2013-12-7,57,44,32,48,30,21,87,58,25,30.10,30.04,29.98,10,10,10,9,3,,0.00,0,,191
2013-12-8,55,50,44,41,38,36,76,63,51,30.12,30.07,30.02,10,10,10,8,2,,0.00,6,,311
2013-12-9,48,40,33,41,20,14,65,39,25,30.27,30.23,30.15,10,10,10,10,7,,0.00,0,,279
2013-12-10,59,46,32,28,24,18,87,47,20,30.25,30.17,30.10,10,10,10,12,9,,0.00,0,,218
2013-12-11,66,52,37,50,33,30,75,45,28,30.20,30.16,30.12,10,10,10,12,9,,0.00,0,,149
2013-12-12,69,56,42,41,35,32,70,40,32,30.19,30.13,30.07,10,10,10,15,6,16,0.00,0,,277
2013-12-13,62,48,35,34,31,28,87,50,29,30.19,30.15,30.10,10,10,10,7,4,,0.00,0,,59
2013-12-14,62,48,33,32,30,27,93,48,26,30.30,30.26,30.22,10,10,10,21,3,,0.00,0,,277
2013-12-15,66,52,37,28,26,21,70,34,18,30.30,30.24,30.18,10,10,10,17,9,23,0.00,0,,89
2013-12-16,75,68,51,32,29,25,47,31,15,30.24,30.19,30.15,10,10,10,12,6,,0.00,0,,128
2013-12-17,80,60,41,32,29,27,61,32,14,30.25,30.17,30.10,10,10,10,10,8,18,0.00,0,,112
2013-12-18,75,60,46,34,28,23,53,28,15,30.07,29.99,29.91,10,10,10,10,6,,0.00,0,,126
2013-12-19,69,61,53,28,27,25,38,25,18,29.85,29.77,29.71,10,10,10,21,13,28,0.00,0,,185
2013-12-20,51,48,44,45,41,37,100,78,62,29.82,29.75,29.71,10,10,10,17,9,22,0.00,5,Rain,173
2013-12-21,53,48,44,39,37,36,81,61,51,30.00,29.92,29.86,10,10,10,16,8,24,0.00,3,,246
2013-12-22,57,45,33,37,34,30,100,61,38,30.23,30.20,30.15,10,10,10,7,2,,0.00,0,,215
2013-12-23,62,48,33,36,33,28,100,62,27,30.35,30.30,30.26,10,10,10,14,3,,0.00,0,,96
2013-12-24,66,52,39,32,28,23,65,40,23,30.22,30.18,30.14,10,10,10,15,10,,0.00,0,,84
2013-12-25,64,48,32,32,31,28,93,49,26,30.26,30.20,30.16,10,10,10,12,4,16,0.00,0,,332
2013-12-26,64,56,48,27,24,23,37,28,21,30.23,30.18,30.12,10,10,10,24,17,33,0.00,0,,94
2013-12-27,68,56,44,23,20,14,43,24,13,30.23,30.16,30.11,10,10,10,22,11,26,0.00,0,,107
2013-12-28,64,50,35,30,26,23,65,38,21,30.12,30.05,29.98,10,10,10,7,5,,0.00,0,,109
2013-12-29,62,48,35,30,30,28,81,48,27,30.10,30.03,29.98,10,10,10,14,4,,0.00,0,,271
2013-12-30,64,48,33,32,29,23,81,46,21,30.28,30.23,30.19,10,10,10,8,4,,0.00,0,,75
2013-12-31,71,53,35,30,25,19,75,36,14,30.23,30.16,30.10,10,10,10,18,7,,0.00,0,,142